SCP
0 0 0 0 0 0 0 0 0 0 0 0 0 0 0 0 0 0 0 0 0 0 0 0 0 0 0 0 0 0 0 0 0 0 0 0 0 0 0 0 0 0 0
0 0 0 0 0 0 0 0 0 0 0 0 0 0 0 0 0 0 0 0 0 0 0 0 0 0 0 0 0 0 0 0 0 0 0 0 0 0 0 0 0 0 0
0 0 0 0 0 0 0 0 0 0 0 0 0 0 0 0 0 0 0 0 0 0 0 0 0 0 0 0 0 0 0 0 0 0 0 0 0 0 0 0 0 0 0
0 0 0 0 0 0 0 0 0 0 0 0 0 0 0 0 0 0 0 0 0 0 0 0 0 0 0 0 0 0 0 0 0 0 0 0 0 0 0 0 0 0 0
0 0 0 0 0 0 0 0 0 0 0 0 0 0 0 0 0 0 0 0 0 0 0 0 0 0 0 0 0 0 0 0 0 0 0 0 0 0 0 0 0 0 0
0 0 0 0 0 0 0 0 0 0 0 0 0 0 0 0 0 0 0 0 0 0 0 0 0 0 0 0 0 0 0 0 0 0 0 0 0 0 0 0 0 0 0
0 0 0 0 0 0 0 0 0 0 0 0 0 0 0 0 0 0 0 0 0 0 0 0 0 0 0 0 0 0 0 0 0 0 0 0 0 0 0 0 0 0 0
0 0 0 0 0 0 0 0 0 0 0 0 0 0 0 0 0 0 0 0 0 0 0 0 0 0 0 0 0 0 0 0 0 0 0 0 0 0 0 0 0 0 0
0 0 0 0 0 0 0 0 0 0 0 0 0 0 0 0 0 0 0 0 0 0 0 0 0 0 0 0 0 0 0 0 0 0 0 0 0 0 0 0 0 0 0
0 0 0 0 0 0 0 0 0 0 0 0 0 0 0 0 0 0 0 0 0 0 0 0 0 0 0 0 0 0 0 0 0 0 0 0 0 0 0 0 0 0 0
0 0 0 0 0 0 0 0 0 0 0 0 0 0 0 0 0 0 0 0 0 0 0 0 0 0 0 0 0 0 0 0 0 0 0 0 0 0 0 0 0 0 0
0 0 0 0 0 0 0 0 0 0 0 0 0 0 0 0 0 0 0 0 0 0 0 0 0 0 0 0 0 0 0 0 0 0 0 0 0 0 0 0 0 0 0
0 0 0 0 0 0 0 0 0 0 0 0 0 0 0 0 0 0 0 0 0 0 0 0 0 0 0 0 0 0 0 0 0 0 0 0 0 0 0 0 0 0 0
0 0 0 0 0 0 0 0 0 0 0 0 0 0 0 0 0 0 0 0 0 0 0 0 0 0 0 0 0 0 0 0 0 0 0 0 0 0 0 0 0 0 0
0 0 0 0 0 0 0 0 0 0 0 0 0 0 0 0 0 0 0 0 0 0 0 0 0 0 0 0 0 0 0 0 0 0 0 0 0 0 0 0 0 0 0
0 0 0 0 0 0 0 0 0 0 0 0 0 0 0 0 0 0 0 0 0 0 0 0 0 0 0 0 0 0 0 0 0 0 0 0 0 0 0 0 0 0 0
0 0 0 0 0 0 0 0 0 0 0 0 0 0 0 0 0 0 0 0 0 0 0 0 0 0 0 0 0 0 0 0 0 0 0 0 0 0 0 0 0 0 0
0 0 0 0 0 0 0 0 0 0 0 0 0 0 0 0 0 0 0 0 0 0 0 0 0 0 0 0 0 0 0 0 0 0 0 0 0 0 0 0 0 0 0
0 0 0 0 0 0 0 0 0 0 0 0 0 0 0 0 0 0 0 0 0 0 0 0 0 0 0 0 0 0 0 0 0 0 0 0 0 0 0 0 0 0 0
0 0 0 0 0 0 0 0 0 0 0 0 0 0 0 0 0 0 0 0 0 0 0 0 0 0 0 0 0 0 0 0 0 0 0 0 0 0 0 0 0 0 0
0 0 0 0 0 0 0 0 0 0 0 0 0 0 0 0 0 0 0 0 0 0 0 0 0 0 0 0 0 0 0 0 0 0 0 0 0 0 0 0 0 0 0
0 0 0 0 0 0 0 0 0 0 0 0 0 0 0 0 0 0 0 0 0 0 0 0 0 0 0 0 0 0 0 0 0 0 0 0 0 0 0 0 0 0 0
0 0 0 0 0 0 0 0 0 0 0 0 0 0 0 0 0 0 0 0 0 0 0 0 0 0 0 0 0 0 0 0 0 0 0 0 0 0 0 -0 -0 0 0
0 0 0 0 0 0 0 0 0 0 0 0 0 0 0 0 0 0 0 0 0 0 0 0 0 0 0 0 0 0 0 0 0 0 0 0 0 0 0 0 0 0 0
0 0 0 0 0 0 0 0 0 0 0 0 0 0 0 0 0 0 0 0 0 0 0 0 0 0 0 0 0 0 0 0 0 0 0 0 0 0 0 0 0 0 0
0 0 0 0 0 0 0 0 0 0 0 0 0 0 0 0 0 0 0 0 0 0 0 0 0 0 0 0 0 0 0 0 0 0 0 0 0 0 0 0 0 0 0
Wind_Speed_500mb
50 51 55 53 52 51 50 52 52 53 52 58 68 72 73 68 63 59 56 52 45 45 45 44 43 43 45 40 40 40 41 44 48 46 47 48 52 54 48 43 39 41 40
56 52 53 58 58 57 58 61 60 56 54 58 58 60 64 68 68 62 60 57 55 48 46 49 49 48 49 50 48 48 47 49 52 50 51 55 56 53 37 40 41 42 42
57 55 52 54 55 60 65 67 65 63 56 55 56 55 52 57 62 69 68 64 61 58 55 50 54 55 56 55 52 52 54 56 56 56 48 31 21 47 52 48 48 44 42
69 58 53 51 53 55 56 65 63 65 59 58 59 58 60 59 60 58 58 64 64 63 59 55 53 52 55 58 57 59 56 59 58 61 61 53 59 52 44 53 55 52 42
73 65 58 53 56 60 59 60 65 66 64 65 66 64 65 62 57 53 48 47 48 59 64 66 64 63 59 55 54 54 61 57 50 61 53 55 53 58 57 58 56 47 46
48 56 57 51 45 57 62 62 64 66 66 67 70 70 68 67 64 54 53 49 47 48 54 57 61 65 65 70 60 55 57 60 51 48 51 51 54 55 49 51 53 54 62
35 32 39 45 46 54 59 61 63 66 66 64 67 69 68 68 67 58 56 54 53 55 48 51 51 55 57 54 55 59 55 51 47 49 48 47 45 48 45 44 52 57 60
22 26 31 38 41 47 55 58 62 63 64 68 71 71 72 73 70 62 56 56 55 53 44 46 46 45 42 45 43 46 46 45 49 42 44 41 37 41 42 47 48 54 59
25 26 28 32 39 40 38 41 42 40 43 52 64 72 73 72 71 64 50 48 43 37 39 40 41 39 38 42 42 45 49 46 38 46 42 39 43 43 42 43 41 44 51
21 21 27 30 29 25 25 24 24 22 23 25 29 34 39 46 51 50 48 48 48 39 39 35 35 35 38 38 41 38 38 36 37 42 44 45 46 42 40 40 40 42 46
26 27 27 26 26 28 29 27 25 24 23 23 23 25 26 31 36 42 45 50 47 39 35 33 34 32 37 41 34 32 38 43 41 40 37 35 35 36 36 36 37 37 41
28 29 31 32 32 30 28 26 25 22 22 24 24 25 26 27 32 36 35 27 28 30 33 30 28 29 27 32 34 32 26 24 25 27 28 29 29 29 31 33 35 36 36
34 36 37 36 35 34 34 32 30 27 26 27 27 27 28 30 31 27 22 23 24 26 27 27 26 23 21 18 17 19 19 20 21 21 21 23 26 28 30 31 33 34 37
29 35 40 42 41 40 39 36 32 29 29 29 28 27 29 28 27 27 26 26 25 24 23 22 20 17 16 14 13 12 13 14 17 18 20 23 26 29 32 34 36 39 41
34 39 43 46 45 42 39 38 35 34 32 29 29 30 30 29 30 31 31 28 26 24 22 18 15 11 7 5 8 12 15 16 19 22 26 29 31 33 34 35 35 39 42
38 44 46 46 47 46 43 41 41 38 34 32 34 33 31 31 31 29 27 25 23 20 17 14 11 7 7 11 13 15 16 19 22 25 26 28 31 31 33 35 36 38 44
51 51 52 54 50 48 47 45 40 41 39 38 37 35 34 33 33 29 27 24 23 22 19 17 12 11 11 10 12 14 17 19 21 23 24 27 30 31 33 35 37 37 41
60 60 62 59 55 52 47 47 49 45 43 42 43 40 38 38 34 33 32 29 26 22 18 14 10 8 7 11 13 14 17 20 23 25 26 28 30 34 36 39 41 42 43
65 60 58 60 57 52 52 55 51 48 47 47 44 42 41 41 38 36 35 31 26 22 17 12 9 9 10 11 13 16 20 24 26 27 27 26 28 32 37 44 48 49 47
67 65 63 62 58 56 56 55 54 51 50 49 44 43 41 38 36 34 33 29 26 19 16 12 10 11 13 14 16 19 21 21 21 22 23 25 29 32 36 43 48 54 56
46 51 55 52 54 56 57 59 56 53 48 47 45 42 39 37 36 35 31 26 21 19 16 16 15 15 16 18 19 19 16 15 16 18 21 23 27 32 37 43 46 49 54
44 41 40 42 47 55 59 57 54 50 49 47 45 45 44 42 38 35 30 27 24 21 19 18 18 19 19 20 18 15 13 14 16 19 24 29 35 40 43 46 48 52 54
36 37 35 38 44 46 47 49 50 51 52 51 49 48 48 46 43 34 30 27 25 24 23 22 22 21 21 20 16 13 13 16 20 24 28 32 37 43 46 48 50 48 51
28 31 36 39 43 46 47 45 47 49 49 49 50 52 50 47 41 39 33 27 26 26 26 26 25 25 24 20 17 15 16 16 21 29 37 43 45 46 48 50 51 51 51
27 29 30 33 38 42 44 48 49 51 53 53 54 54 50 44 40 35 30 26 26 30 28 27 27 25 23 20 17 17 19 23 29 35 42 48 51 56 58 60 61 61 61
24 27 29 32 36 40 44 49 51 51 53 57 58 54 49 46 40 34 31 33 33 32 31 31 28 27 22 18 17 18 21 27 34 39 44 51 56 60 63 65 66 63 61
Wind_Direction_500mb
235 239 242 240 240 239 238 236 236 234 235 233 226 226 228 230 234 237 238 239 242 235 240 241 239 241 246 252 254 258 261 269 275 282 286 290 296 299 299 307 302 298 305
241 236 231 232 236 240 241 239 239 242 241 240 243 236 234 234 236 238 241 243 242 243 243 245 244 246 248 249 253 256 263 266 272 274 285 296 298 298 298 306 308 309 298
246 239 231 229 233 237 238 239 239 243 244 245 247 245 243 241 239 239 240 242 246 248 252 252 248 249 252 254 255 256 260 263 269 274 275 282 282 293 303 301 303 305 302
243 240 236 233 232 237 241 240 240 243 247 247 247 246 247 247 252 254 252 246 252 252 256 257 254 257 259 257 260 263 266 270 269 273 278 286 277 280 287 292 300 299 296
243 244 241 240 239 232 233 236 237 240 244 247 249 251 253 257 261 263 266 260 253 256 259 258 259 257 256 260 261 262 274 271 282 275 276 278 285 279 273 281 296 297 297
243 241 239 239 241 228 225 228 233 238 238 239 242 247 252 256 260 261 261 262 263 258 260 258 258 263 265 262 262 269 267 274 267 276 275 279 285 279 283 288 295 299 298
232 231 228 226 224 219 222 226 231 235 238 241 242 243 247 253 257 255 261 264 264 263 263 261 260 260 256 263 262 267 269 270 275 276 278 272 282 278 279 287 295 296 298
198 200 205 210 214 220 226 234 240 240 240 241 241 243 246 249 253 253 248 257 259 262 261 261 259 260 252 249 254 257 261 267 271 270 272 278 276 279 284 288 290 293 294
206 209 210 218 223 227 231 237 243 245 242 240 242 243 244 247 250 253 247 247 254 258 257 255 256 250 250 253 255 256 255 257 277 280 274 272 277 275 277 278 282 287 290
200 206 210 213 212 211 214 214 217 218 221 224 228 232 235 239 244 245 244 239 245 256 255 252 252 253 252 251 255 251 260 264 268 266 270 270 274 273 275 278 278 278 282
213 205 198 202 205 207 213 217 220 221 222 224 224 225 226 226 229 235 238 240 243 239 243 238 249 253 252 243 248 260 256 262 263 270 276 281 282 283 283 282 281 279 281
221 217 212 212 216 220 225 228 229 230 233 230 225 222 221 221 221 230 235 218 221 227 236 242 243 237 245 253 253 257 261 268 274 277 280 281 284 288 289 288 286 286 284
214 218 223 230 235 232 230 230 228 223 222 219 216 213 212 217 225 219 202 204 212 218 223 221 225 236 241 241 247 258 268 277 283 286 290 294 295 295 296 297 299 299 293
220 226 230 233 234 231 228 226 226 223 219 212 207 204 201 201 194 189 193 197 197 207 216 216 213 220 238 253 269 281 289 286 283 287 291 294 297 299 302 305 305 304 304
220 229 231 229 226 224 225 226 221 220 219 217 212 204 198 194 193 193 193 196 192 192 195 207 219 227 247 291 286 273 271 278 288 295 298 298 299 301 303 304 305 305 305
240 247 241 232 228 227 227 224 220 219 218 219 216 209 204 199 195 189 183 182 187 195 206 208 203 195 220 237 252 267 280 289 293 294 299 304 307 308 306 307 307 307 307
245 245 247 241 231 227 225 223 220 220 220 220 215 210 205 197 191 188 190 192 198 198 191 188 191 212 228 252 276 289 295 300 306 311 315 315 312 311 310 309 308 307 306
248 250 250 246 232 226 222 219 218 219 220 217 214 209 203 199 197 197 195 191 183 181 189 200 213 233 273 291 299 308 315 316 316 317 317 313 310 309 309 306 304 305 305
249 249 251 247 235 227 221 217 217 219 219 217 214 209 204 204 201 195 190 186 188 188 201 212 232 266 284 297 308 310 308 305 304 304 304 308 310 310 311 313 315 315 314
245 249 252 244 231 227 222 220 219 219 221 217 211 209 204 201 194 189 187 185 182 195 203 221 244 270 284 288 292 295 293 292 297 304 314 321 322 322 321 321 322 322 323
245 244 238 235 227 221 218 218 219 221 217 209 207 204 200 194 191 190 186 186 198 206 223 244 256 269 283 289 286 281 282 289 301 315 324 330 330 330 331 329 328 327 325
223 222 225 224 219 217 217 215 216 213 207 205 203 199 195 191 191 191 193 201 210 222 236 251 267 273 272 267 264 271 288 305 316 324 331 338 338 336 333 330 329 328 331
217 218 219 218 211 212 217 219 213 207 202 199 197 196 193 191 190 195 209 216 225 237 247 255 257 253 248 249 255 270 286 301 318 330 337 339 338 337 336 337 340 337 327
205 208 203 202 211 210 211 210 212 205 202 201 198 196 195 194 199 204 208 225 238 248 248 243 238 238 241 243 245 266 286 309 325 334 341 340 339 336 334 330 328 326 324
200 201 207 206 208 211 207 203 203 205 201 199 198 195 194 198 204 211 223 232 243 243 239 237 238 242 243 251 270 289 309 327 334 334 334 333 330 328 329 329 327 325 323
197 201 203 205 209 208 205 203 201 205 205 200 198 197 200 204 207 219 231 234 232 234 236 238 235 232 243 259 278 299 319 325 329 330 329 328 329 329 328 326 325 325 324
Wind_Speed_850mb
50 51 55 53 52 51 50 52 52 53 52 58 68 72 73 68 63 59 56 52 45 45 45 44 43 43 45 40 40 40 41 44 48 46 47 48 52 54 48 43 39 41 40
56 52 53 58 58 57 58 61 60 56 54 58 58 60 64 68 68 62 60 57 55 48 46 49 49 48 49 50 48 48 47 49 52 50 51 55 56 53 37 40 41 42 42
57 55 52 54 55 60 65 67 65 63 56 55 56 55 52 57 62 69 68 64 61 58 55 50 54 55 56 55 52 52 54 56 56 56 48 31 21 47 52 48 48 44 42
69 58 53 51 53 55 56 65 63 65 59 58 59 58 60 59 60 58 58 64 64 63 59 55 53 52 55 58 57 59 56 59 58 61 61 53 59 52 44 53 55 52 42
73 65 58 53 56 60 59 60 65 66 64 65 66 64 65 62 57 53 48 47 48 59 64 66 64 63 59 55 54 54 61 57 50 61 53 55 53 58 57 58 56 47 46
48 56 57 51 45 57 62 62 64 66 66 67 70 70 68 67 64 54 53 49 47 48 54 57 61 65 65 70 60 55 57 60 51 48 51 51 54 55 49 51 53 54 62
35 32 39 45 46 54 59 61 63 66 66 64 67 69 68 68 67 58 56 54 53 55 48 51 51 55 57 54 55 59 55 51 47 49 48 47 45 48 45 44 52 57 60
22 26 31 38 41 47 55 58 62 63 64 68 71 71 72 73 70 62 56 56 55 53 44 46 46 45 42 45 43 46 46 45 49 42 44 41 37 41 42 47 48 54 59
25 26 28 32 39 40 38 41 42 40 43 52 64 72 73 72 71 64 50 48 43 37 39 40 41 39 38 42 42 45 49 46 38 46 42 39 43 43 42 43 41 44 51
21 21 27 30 29 25 25 24 24 22 23 25 29 34 39 46 51 50 48 48 48 39 39 35 35 35 38 38 41 38 38 36 37 42 44 45 46 42 40 40 40 42 46
26 27 27 26 26 28 29 27 25 24 23 23 23 25 26 31 36 42 45 50 47 39 35 33 34 32 37 41 34 32 38 43 41 40 37 35 35 36 36 36 37 37 41
28 29 31 32 32 30 28 26 25 22 22 24 24 25 26 27 32 36 35 27 28 30 33 30 28 29 27 32 34 32 26 24 25 27 28 29 29 29 31 33 35 36 36
34 36 37 36 35 34 34 32 30 27 26 27 27 27 28 30 31 27 22 23 24 26 27 27 26 23 21 18 17 19 19 20 21 21 21 23 26 28 30 31 33 34 37
29 35 40 42 41 40 39 36 32 29 29 29 28 27 29 28 27 27 26 26 25 24 23 22 20 17 16 14 13 12 13 14 17 18 20 23 26 29 32 34 36 39 41
34 39 43 46 45 42 39 38 35 34 32 29 29 30 30 29 30 31 31 28 26 24 22 18 15 11 7 5 8 12 15 16 19 22 26 29 31 33 34 35 35 39 42
38 44 46 46 47 46 43 41 41 38 34 32 34 33 31 31 31 29 27 25 23 20 17 14 11 7 7 11 13 15 16 19 22 25 26 28 31 31 33 35 36 38 44
51 51 52 54 50 48 47 45 40 41 39 38 37 35 34 33 33 29 27 24 23 22 19 17 12 11 11 10 12 14 17 19 21 23 24 27 30 31 33 35 37 37 41
60 60 62 59 55 52 47 47 49 45 43 42 43 40 38 38 34 33 32 29 26 22 18 14 10 8 7 11 13 14 17 20 23 25 26 28 30 34 36 39 41 42 43
65 60 58 60 57 52 52 55 51 48 47 47 44 42 41 41 38 36 35 31 26 22 17 12 9 9 10 11 13 16 20 24 26 27 27 26 28 32 37 44 48 49 47
67 65 63 62 58 56 56 55 54 51 50 49 44 43 41 38 36 34 33 29 26 19 16 12 10 11 13 14 16 19 21 21 21 22 23 25 29 32 36 43 48 54 56
46 51 55 52 54 56 57 59 56 53 48 47 45 42 39 37 36 35 31 26 21 19 16 16 15 15 16 18 19 19 16 15 16 18 21 23 27 32 37 43 46 49 54
44 41 40 42 47 55 59 57 54 50 49 47 45 45 44 42 38 35 30 27 24 21 19 18 18 19 19 20 18 15 13 14 16 19 24 29 35 40 43 46 48 52 54
36 37 35 38 44 46 47 49 50 51 52 51 49 48 48 46 43 34 30 27 25 24 23 22 22 21 21 20 16 13 13 16 20 24 28 32 37 43 46 48 50 48 51
28 31 36 39 43 46 47 45 47 49 49 49 50 52 50 47 41 39 33 27 26 26 26 26 25 25 24 20 17 15 16 16 21 29 37 43 45 46 48 50 51 51 51
27 29 30 33 38 42 44 48 49 51 53 53 54 54 50 44 40 35 30 26 26 30 28 27 27 25 23 20 17 17 19 23 29 35 42 48 51 56 58 60 61 61 61
24 27 29 32 36 40 44 49 51 51 53 57 58 54 49 46 40 34 31 33 33 32 31 31 28 27 22 18 17 18 21 27 34 39 44 51 56 60 63 65 66 63 61
Wind_Direction_850mb
235 239 242 240 240 239 238 236 236 234 235 233 226 226 228 230 234 237 238 239 242 235 240 241 239 241 246 252 254 258 261 269 275 282 286 290 296 299 299 307 302 298 305
241 236 231 232 236 240 241 239 239 242 241 240 243 236 234 234 236 238 241 243 242 243 243 245 244 246 248 249 253 256 263 266 272 274 285 296 298 298 298 306 308 309 298
246 239 231 229 233 237 238 239 239 243 244 245 247 245 243 241 239 239 240 242 246 248 252 252 248 249 252 254 255 256 260 263 269 274 275 282 282 293 303 301 303 305 302
243 240 236 233 232 237 241 240 240 243 247 247 247 246 247 247 252 254 252 246 252 252 256 257 254 257 259 257 260 263 266 270 269 273 278 286 277 280 287 292 300 299 296
243 244 241 240 239 232 233 236 237 240 244 247 249 251 253 257 261 263 266 260 253 256 259 258 259 257 256 260 261 262 274 271 282 275 276 278 285 279 273 281 296 297 297
243 241 239 239 241 228 225 228 233 238 238 239 242 247 252 256 260 261 261 262 263 258 260 258 258 263 265 262 262 269 267 274 267 276 275 279 285 279 283 288 295 299 298
232 231 228 226 224 219 222 226 231 235 238 241 242 243 247 253 257 255 261 264 264 263 263 261 260 260 256 263 262 267 269 270 275 276 278 272 282 278 279 287 295 296 298
198 200 205 210 214 220 226 234 240 240 240 241 241 243 246 249 253 253 248 257 259 262 261 261 259 260 252 249 254 257 261 267 271 270 272 278 276 279 284 288 290 293 294
206 209 210 218 223 227 231 237 243 245 242 240 242 243 244 247 250 253 247 247 254 258 257 255 256 250 250 253 255 256 255 257 277 280 274 272 277 275 277 278 282 287 290
200 206 210 213 212 211 214 214 217 218 221 224 228 232 235 239 244 245 244 239 245 256 255 252 252 253 252 251 255 251 260 264 268 266 270 270 274 273 275 278 278 278 282
213 205 198 202 205 207 213 217 220 221 222 224 224 225 226 226 229 235 238 240 243 239 243 238 249 253 252 243 248 260 256 262 263 270 276 281 282 283 283 282 281 279 281
221 217 212 212 216 220 225 228 229 230 233 230 225 222 221 221 221 230 235 218 221 227 236 242 243 237 245 253 253 257 261 268 274 277 280 281 284 288 289 288 286 286 284
214 218 223 230 235 232 230 230 228 223 222 219 216 213 212 217 225 219 202 204 212 218 223 221 225 236 241 241 247 258 268 277 283 286 290 294 295 295 296 297 299 299 293
220 226 230 233 234 231 228 226 226 223 219 212 207 204 201 201 194 189 193 197 197 207 216 216 213 220 238 253 269 281 289 286 283 287 291 294 297 299 302 305 305 304 304
220 229 231 229 226 224 225 226 221 220 219 217 212 204 198 194 193 193 193 196 192 192 195 207 219 227 247 291 286 273 271 278 288 295 298 298 299 301 303 304 305 305 305
240 247 241 232 228 227 227 224 220 219 218 219 216 209 204 199 195 189 183 182 187 195 206 208 203 195 220 237 252 267 280 289 293 294 299 304 307 308 306 307 307 307 307
245 245 247 241 231 227 225 223 220 220 220 220 215 210 205 197 191 188 190 192 198 198 191 188 191 212 228 252 276 289 295 300 306 311 315 315 312 311 310 309 308 307 306
248 250 250 246 232 226 222 219 218 219 220 217 214 209 203 199 197 197 195 191 183 181 189 200 213 233 273 291 299 308 315 316 316 317 317 313 310 309 309 306 304 305 305
249 249 251 247 235 227 221 217 217 219 219 217 214 209 204 204 201 195 190 186 188 188 201 212 232 266 284 297 308 310 308 305 304 304 304 308 310 310 311 313 315 315 314
245 249 252 244 231 227 222 220 219 219 221 217 211 209 204 201 194 189 187 185 182 195 203 221 244 270 284 288 292 295 293 292 297 304 314 321 322 322 321 321 322 322 323
245 244 238 235 227 221 218 218 219 221 217 209 207 204 200 194 191 190 186 186 198 206 223 244 256 269 283 289 286 281 282 289 301 315 324 330 330 330 331 329 328 327 325
223 222 225 224 219 217 217 215 216 213 207 205 203 199 195 191 191 191 193 201 210 222 236 251 267 273 272 267 264 271 288 305 316 324 331 338 338 336 333 330 329 328 331
217 218 219 218 211 212 217 219 213 207 202 199 197 196 193 191 190 195 209 216 225 237 247 255 257 253 248 249 255 270 286 301 318 330 337 339 338 337 336 337 340 337 327
205 208 203 202 211 210 211 210 212 205 202 201 198 196 195 194 199 204 208 225 238 248 248 243 238 238 241 243 245 266 286 309 325 334 341 340 339 336 334 330 328 326 324
200 201 207 206 208 211 207 203 203 205 201 199 198 195 194 198 204 211 223 232 243 243 239 237 238 242 243 251 270 289 309 327 334 334 334 333 330 328 329 329 327 325 323
197 201 203 205 209 208 205 203 201 205 205 200 198 197 200 204 207 219 231 234 232 234 236 238 235 232 243 259 278 299 319 325 329 330 329 328 329 329 328 326 325 325 324